Latest Coastal Weather Observations for Creal Reef

IDQ60701

Issued at 10:31 am EST Tuesday 7 July 2015 (issued every 10 minutes, with the page automatically refreshed every 10 minutes)

About coastal observations | Map of coastal stations | Coastal observations for QLD | Marine services | Other Formats
Station Details ID: 200736 Name: CREAL REEF Lat: -20.53 Lon: 150.38 Height: 1.7 m
Data from the previous 72 hours. | See also: Recent months for locations in Queensland
Date/Time
EST
Temp

°C
Wind Pressure Rain
since 9am
mm
Weather Cloud Vis
km
Sea
Height
m
Swell
Dir
 
Speed
knots
Gust
knots
hPa Trend Height
m
Period
s
Dir
07/10:30am 22.7 SSE 10 13 1017.5 - - - - - - - - -
07/10:20am 22.7 SE 10 11 1017.5 - - - - - - - - -
07/10:00am 22.6 SE 10 13 1017.6 - - - - - - - - -
07/09:30am 22.4 SE 11 14 1017.7 - - - - - - - - -
07/09:20am 22.4 SE 12 - 1017.6 - - - - - - - - -
07/09:00am 22.4 SE 12 14 1017.7 - - - - - - - - -
07/08:30am 22.2 SE 11 14 1017.4 - - - - - - - - -
07/08:20am 22.3 SE 11 - 1017.2 - - - - - - - - -
07/08:00am 22.0 SE 12 14 1017.0 - - - - - - - - -
07/07:30am 22.1 SE 12 14 1016.7 - - - - - - - - -
07/07:20am 22.0 SE 12 - 1016.5 - - - - - - - - -
07/07:00am 21.8 SSE 12 14 1016.5 - - - - - - - - -
07/06:30am 21.8 SSE 11 15 1016.1 - - - - - - - - -
07/06:20am 21.9 SSE 11 - 1015.9 - - - - - - - - -
07/06:00am 21.7 SE 12 15 1015.7 - - - - - - - - -
07/05:30am 21.8 SE 12 15 1015.5 - - - - - - - - -
07/05:20am 21.8 SE 11 - 1015.2 - - - - - - - - -
07/05:00am 21.6 SE 12 15 1015.1 - - - - - - - - -
07/04:30am 21.6 SSE 13 16 1015.0 - - - - - - - - -
07/04:20am 21.5 SSE 14 - 1014.9 - - - - - - - - -
07/03:30am 21.3 SE 12 15 1015.1 - - - - - - - - -
07/03:20am 21.4 SE 13 - 1015.0 - - - - - - - - -
07/03:00am 21.5 SE 13 16 1015.2 - - - - - - - - -
07/02:30am 21.4 SE 13 17 1015.4 - - - - - - - - -
07/02:20am 21.5 SE 13 - 1015.4 - - - - - - - - -
07/02:00am 21.6 SE 12 15 1015.6 - - - - - - - - -
07/01:30am 21.6 SE 13 15 1016.0 - - - - - - - - -
07/01:20am 21.7 SE 13 - 1016.0 - - - - - - - - -
07/01:00am 21.7 SE 13 15 1016.3 - - - - - - - - -
07/12:30am 21.7 ESE 13 15 1016.6 - - - - - - - - -
07/12:20am 21.6 ESE 13 - 1016.6 - - - - - - - - -
07/12:00am 21.8 ESE 13 15 1016.9 - - - - - - - - -
 
Date/Time
EST
Temp

°C
Wind Pressure Rain
since 9am
mm
Weather Cloud Vis
km
Sea
Height
m
Swell
Dir
 
Speed
knots
Gust
knots
hPa Trend Height
m
Period
s
Dir
06/11:30pm 21.7 ESE 12 14 1017.0 - - - - - - - - -
06/11:20pm 21.9 ESE 12 - 1017.0 - - - - - - - - -
06/11:00pm 21.6 ESE 12 14 1017.3 - - - - - - - - -
06/10:30pm 21.9 ESE 12 15 1017.2 - - - - - - - - -
06/10:20pm 21.7 ESE 12 - 1017.2 - - - - - - - - -
06/10:00pm 21.7 ESE 12 13 1017.3 - - - - - - - - -
06/09:30pm 21.9 SE 11 13 1017.3 - - - - - - - - -
06/09:20pm 21.7 SE 11 - 1017.1 - - - - - - - - -
06/09:00pm 21.8 SE 10 13 1017.3 - - - - - - - - -
06/08:30pm 21.8 SE 11 14 1017.4 - - - - - - - - -
06/08:20pm 21.9 SE 11 - 1017.3 - - - - - - - - -
06/08:00pm 21.7 SE 11 15 1017.3 - - - - - - - - -
06/07:30pm 21.8 SE 11 14 1017.1 - - - - - - - - -
06/07:20pm 21.7 SE 11 - 1016.9 - - - - - - - - -
06/07:00pm 21.8 SE 11 14 1016.9 - - - - - - - - -
06/06:30pm 21.9 SE 11 14 1016.5 - - - - - - - - -
06/06:20pm 22.0 SE 11 - 1016.3 - - - - - - - - -
06/06:00pm 21.9 SSE 10 13 1016.3 - - - - - - - - -
06/05:30pm 22.0 SE 11 14 1016.0 - - - - - - - - -
06/05:20pm 22.0 SSE 11 - 1015.8 - - - - - - - - -
06/05:00pm 22.1 SSE 10 12 1015.9 - - - - - - - - -
06/04:30pm 22.0 SSE 11 13 1015.7 - - - - - - - - -
06/04:20pm 22.3 SSE 11 - 1015.6 - - - - - - - - -
06/04:00pm 22.3 SSE 11 14 1015.6 - - - - - - - - -
06/03:30pm 22.1 SE 11 14 1015.6 - - - - - - - - -
06/03:20pm 22.1 SE 10 - 1015.5 - - - - - - - - -
06/03:00pm 22.2 SE 12 14 1015.5 - - - - - - - - -
06/02:30pm 22.1 SE 12 17 1015.7 - - - - - - - - -
06/02:20pm 22.1 SE 12 - 1015.7 - - - - - - - - -
06/02:00pm 22.1 SE 13 15 1015.9 - - - - - - - - -
06/01:30pm 22.1 SE 14 17 1016.1 - - - - - - - - -
06/01:20pm 22.0 SE 13 - 1016.1 - - - - - - - - -
06/01:00pm 22.0 SE 14 16 1016.4 - - - - - - - - -
06/12:30pm 22.2 SE 14 16 1016.9 - - - - - - - - -
06/12:20pm 22.0 SE 14 - 1016.9 - - - - - - - - -
06/12:00pm 22.2 ESE 14 17 1017.3 - - - - - - - - -
06/11:30am 22.2 SE 14 17 1017.6 - - - - - - - - -
06/11:20am 22.2 ESE 15 - 1017.6 - - - - - - - - -
06/11:00am 22.3 SE 16 19 1017.9 - - - - - - - - -
06/10:30am 22.5 SE 15 18 1018.0 - - - - - - - - -
06/10:20am 22.3 SE 16 - 1018.0 - - - - - - - - -
06/10:00am 22.2 SE 16 19 1018.2 - - - - - - - - -
06/09:30am 22.1 SE 17 19 1018.4 - - - - - - - - -
06/09:20am 22.0 SE 17 - 1018.4 - - - - - - - - -
06/09:00am 21.9 SE 17 20 1018.5 - - - - - - - - -
06/08:30am 21.9 SE 18 21 1018.2 - - - - - - - - -
06/08:20am 21.8 SE 19 - 1018.0 - - - - - - - - -
06/08:00am 21.7 SE 18 21 1017.9 - - - - - - - - -
06/07:30am 21.7 ESE 19 21 1017.8 - - - - - - - - -
06/07:20am 21.7 SE 19 - 1017.7 - - - - - - - - -
06/07:00am 21.6 SE 18 21 1017.6 - - - - - - - - -
06/06:30am 21.8 SE 19 21 1017.3 - - - - - - - - -
06/06:20am 21.7 SE 19 - 1017.2 - - - - - - - - -
06/06:00am 21.9 SE 18 21 1017.3 - - - - - - - - -
06/05:30am 21.8 SE 18 20 1017.0 - - - - - - - - -
06/05:20am 21.8 SE 18 - 1016.9 - - - - - - - - -
06/05:00am 22.0 SE 17 21 1017.0 - - - - - - - - -
06/04:30am 21.7 SE 18 21 1016.9 - - - - - - - - -
06/04:20am 21.7 SE 18 - 1016.8 - - - - - - - - -
06/04:00am 21.8 SE 18 20 1017.0 - - - - - - - - -
06/03:30am 21.8 SE 18 22 1017.1 - - - - - - - - -
06/03:20am 21.8 SE 17 - 1017.0 - - - - - - - - -
06/03:00am 21.9 SE 19 21 1017.1 - - - - - - - - -
06/02:30am 21.8 SE 19 22 1017.2 - - - - - - - - -
06/02:20am 21.6 SE 18 - 1017.2 - - - - - - - - -
06/02:00am 21.8 SE 17 21 1017.4 - - - - - - - - -
06/01:30am 21.8 SE 16 21 1017.8 - - - - - - - - -
06/01:20am 21.9 SE 16 - 1017.9 - - - - - - - - -
06/01:00am 21.7 SE 18 20 1018.2 - - - - - - - - -
06/12:30am 21.8 SE 17 20 1018.3 - - - - - - - - -
06/12:20am 21.8 SE 16 - 1018.2 - - - - - - - - -
06/12:00am 21.9 SE 17 19 1018.4 - - - - - - - - -
 
Date/Time
EST
Temp

°C
Wind Pressure Rain
since 9am
mm
Weather Cloud Vis
km
Sea
Height
m
Swell
Dir
 
Speed
knots
Gust
knots
hPa Trend Height
m
Period
s
Dir
05/11:30pm 22.0 SE 17 21 1018.5 - - - - - - - - -
05/11:20pm 21.9 SE 16 - 1018.5 - - - - - - - - -
05/11:00pm 21.8 SE 15 18 1018.9 - - - - - - - - -
05/10:30pm 22.0 ESE 16 20 1019.0 - - - - - - - - -
05/10:20pm 21.8 ESE 16 - 1018.8 - - - - - - - - -
05/10:00pm 21.8 ESE 16 18 1018.9 - - - - - - - - -
05/09:30pm 21.7 ESE 18 21 1019.0 - - - - - - - - -
05/09:20pm 21.8 ESE 18 - 1018.8 - - - - - - - - -
05/09:00pm 21.9 ESE 18 20 1018.7 - - - - - - - - -
05/08:30pm 21.8 E 18 20 1018.7 - - - - - - - - -
05/08:20pm 21.9 E 19 - 1018.5 - - - - - - - - -
05/08:00pm 21.9 ESE 18 21 1018.5 - - - - - - - - -
05/07:30pm 22.1 ESE 19 22 1018.2 - - - - - - - - -
05/07:20pm 22.0 ESE 19 - 1018.1 - - - - - - - - -
05/07:00pm 22.0 ESE 19 22 1018.0 - - - - - - - - -
05/06:30pm 22.1 ESE 18 21 1017.8 - - - - - - - - -
05/06:20pm 22.1 ESE 18 - 1017.5 - - - - - - - - -
05/06:00pm 22.2 ESE 18 21 1017.5 - - - - - - - - -
05/05:30pm 22.1 SE 19 21 1017.3 - - - - - - - - -
05/05:20pm 22.3 SE 19 - 1017.1 - - - - - - - - -
05/05:00pm 22.2 SE 18 21 1017.2 - - - - - - - - -
05/04:30pm 21.9 SE 18 21 1017.2 - - - - - - - - -
05/04:20pm 21.9 SE 19 - 1017.1 - - - - - - - - -
05/04:00pm 22.3 SE 17 20 1017.1 - - - - - - - - -
05/03:30pm 22.0 SE 16 19 1017.1 - - - - - - - - -
05/03:20pm 22.2 SE 17 - 1017.0 - - - - - - - - -
05/03:00pm 22.1 SE 18 21 1017.2 - - - - - - - - -
05/02:30pm 21.7 SE 18 22 1017.3 - - - - - - - - -
05/02:20pm 22.0 SE 18 - 1017.2 - - - - - - - - -
05/02:00pm 21.9 SE 18 21 1017.3 - - - - - - - - -
05/01:30pm 21.6 SE 18 19 1017.6 - - - - - - - - -
05/01:20pm 21.6 SE 19 - 1017.7 - - - - - - - - -
05/01:00pm 21.6 SE 19 21 1017.9 - - - - - - - - -
05/12:30pm 21.3 SSE 15 17 1018.2 - - - - - - - - -
05/12:20pm 22.0 SSE 13 - 1018.3 - - - - - - - - -
05/12:00pm 22.0 E 16 17 1018.6 - - - - - - - - -
05/11:30am 22.2 ESE 12 17 1018.9 - - - - - - - - -
05/11:20am 22.1 SE 6 - 1019.0 - - - - - - - - -
05/11:00am 21.5 ESE 8 9 1019.4 - - - - - - - - -
05/10:30am 20.5 E 7 10 1019.6 - - - - - - - - -
05/10:20am 20.1 E 13 - 1019.6 - - - - - - - - -
05/10:00am 21.6 SE 14 17 1019.5 - - - - - - - - -
05/09:30am 19.6 E 17 21 1019.9 - - - - - - - - -
05/09:21am 20.6 E 20 23 1019.8 - - - - - - - - -
05/09:20am 21.0 ESE 18 - 1019.7 - - - - - - - - -
05/09:00am 21.3 SE 12 16 1019.6 - - - - - - - - -
05/08:30am 21.7 ESE 13 16 1019.3 - - - - - - - - -
05/08:20am 21.6 E 14 - 1019.1 - - - - - - - - -
05/08:00am 21.4 ESE 12 14 1019.0 - - - - - - - - -
05/07:30am 21.1 SE 12 14 1018.7 - - - - - - - - -
05/07:20am 20.6 ESE 10 - 1018.4 - - - - - - - - -
05/07:00am 19.7 E 8 11 1018.5 - - - - - - - - -
05/06:30am 19.5 SSE 14 18 1018.5 - - - - - - - - -
05/06:20am 20.2 SSE 13 - 1018.2 - - - - - - - - -
05/06:00am 20.2 SSE 13 17 1018.1 - - - - - - - - -
05/05:30am 20.0 SSE 12 15 1017.9 - - - - - - - - -
05/05:20am 20.0 SE 11 - 1017.8 - - - - - - - - -
05/05:00am 20.3 SE 16 21 1017.9 - - - - - - - - -
05/04:30am 21.0 SE 17 20 1017.6 - - - - - - - - -
05/04:20am 21.0 SE 16 - 1017.5 - - - - - - - - -
05/04:00am 21.0 ESE 19 21 1017.5 - - - - - - - - -
05/03:30am 21.2 ESE 15 18 1017.6 - - - - - - - - -
05/03:20am 20.9 ESE 16 - 1017.5 - - - - - - - - -
05/03:00am 21.0 ESE 17 20 1017.5 - - - - - - - - -
05/02:30am 20.7 E 21 25 1017.7 - - - - - - - - -
05/02:20am 20.7 E 22 - 1017.6 - - - - - - - - -
05/02:00am 21.6 ESE 19 23 1017.7 - - - - - - - - -
05/01:30am 21.2 SE 21 23 1017.9 - - - - - - - - -
05/01:20am 21.5 SE 21 - 1017.8 - - - - - - - - -
05/01:00am 22.0 SE 21 25 1018.0 - - - - - - - - -
05/12:30am 21.8 SE 19 22 1018.4 - - - - - - - - -
05/12:20am 21.9 SE 18 - 1018.4 - - - - - - - - -
05/12:00am 21.8 SE 19 22 1018.5 - - - - - - - - -
 
Date/Time
EST
Temp

°C
Wind Pressure Rain
since 9am
mm
Weather Cloud Vis
km
Sea
Height
m
Swell
Dir
 
Speed
knots
Gust
knots
hPa Trend Height
m
Period
s
Dir
04/11:30pm 21.5 SE 20 24 1018.8 - - - - - - - - -
04/11:20pm 21.9 SE 19 - 1018.7 - - - - - - - - -
04/11:00pm 21.9 SE 17 20 1018.9 - - - - - - - - -
04/10:48pm 22.0 ESE 18 22 1019.0 - - - - - - - - -
04/10:40pm 21.5 E 20 22 1019.1 - - - - - - - - -
04/10:30pm 21.6 SE 17 21 1019.1 - - - - - - - - -
04/10:20pm 21.3 S 13 - 1019.0 - - - - - - - - -
04/10:15pm 20.4 SE 15 25 1019.3 - - - - - - - - -
04/10:00pm 21.2 SE 16 22 1019.3 - - - - - - - - -
04/09:30pm 21.8 SE 16 19 1019.4 - - - - - - - - -
04/09:20pm 21.5 SE 15 - 1019.3 - - - - - - - - -
04/09:00pm 21.4 SE 16 20 1019.4 - - - - - - - - -
04/08:30pm 21.2 SE 18 22 1019.3 - - - - - - - - -
04/08:20pm 21.6 SE 18 - 1019.1 - - - - - - - - -
04/08:00pm 21.4 SE 17 20 1019.0 - - - - - - - - -
04/07:30pm 21.2 SE 15 19 1018.9 - - - - - - - - -
04/07:20pm 21.1 SE 16 - 1018.6 - - - - - - - - -
04/07:00pm 21.6 SE 17 22 1018.5 - - - - - - - - -
04/06:30pm 21.2 ESE 19 21 1018.1 - - - - - - - - -
04/06:20pm 21.1 ESE 20 - 1017.9 - - - - - - - - -
04/06:00pm 21.4 SE 18 21 1017.9 - - - - - - - - -
04/05:30pm 21.3 SE 16 19 1017.7 - - - - - - - - -
04/05:20pm 21.4 SE 17 - 1017.6 - - - - - - - - -
04/05:00pm 21.3 SE 19 23 1017.6 - - - - - - - - -
04/04:30pm 21.3 SE 18 22 1017.4 - - - - - - - - -
04/04:20pm 21.6 SE 18 - 1017.3 - - - - - - - - -
04/04:00pm 21.0 S 15 21 1017.3 - - - - - - - - -
04/03:30pm 21.8 SE 12 14 1017.2 - - - - - - - - -
04/03:20pm 21.6 ESE 14 - 1017.1 - - - - - - - - -
04/03:00pm 21.4 SE 8 13 1017.3 - - - - - - - - -
04/02:30pm 22.0 ESE 18 21 1017.3 - - - - - - - - -
04/02:20pm 22.1 ESE 16 - 1017.1 - - - - - - - - -
04/02:00pm 22.1 ESE 17 19 1017.3 - - - - - - - - -
04/01:30pm 22.3 ESE 17 19 1017.3 - - - - - - - - -
04/01:20pm 22.3 ESE 16 - 1017.2 - - - - - - - - -
04/01:00pm 22.2 ESE 17 20 1017.6 - - - - - - - - -
04/12:30pm 22.2 SE 17 21 1018.0 - - - - - - - - -
04/12:20pm 22.3 ESE 18 - 1018.0 - - - - - - - - -
04/12:00pm 22.2 ESE 18 20 1018.4 - - - - - - - - -
04/11:30am 22.4 ESE 21 24 1018.7 - - - - - - - - -
04/11:20am 22.3 ESE 20 - 1018.7 - - - - - - - - -
04/11:00am 22.6 ESE 19 23 1018.9 - - - - - - - - -

Other Formats:

Comma delimited format used in spreadsheet applications
http://www.bom.gov.au/fwo/IDQ60701/IDQ60701.94371.axf

JavaScript Object Notation format (JSON) in row-major order
http://www.bom.gov.au/fwo/IDQ60701/IDQ60701.94371.json